Plattsburgh, NY

3:23 PM EST on December 05, 2019 (GMT -0500)
Plattsburgh International

Weather History for KPBG - October, 2019

Change the Weather History Date:

Friday, October 25, 2019

  Actual Average Record
Temperature  
Mean Temperature 46 °F 44 °F  
Max Temperature 51 °F 54 °F 78 °F (1963)
Min Temperature 42 °F 35 °F 20 °F (1981)
Degree Days  
Heating Degree Days 18 21  
Month to date heating degree days 388 415  
Since 1 July heating degree days 580 650  
Cooling Degree Days 0 0  
Month to date cooling degree days 0 0  
Year to date cooling degree days 406 345  
Moisture  
Dew Point 40 °F    
Average Humidity 76    
Maximum Humidity 86    
Minimum Humidity 66    
Precipitation  
Precipitation T in - 1.23 in (2008)
Month to date precipitation 3.34 0.00  
Year to date precipitation 24.96  
Sea Level Pressure  
Sea Level Pressure 30.25 in    
Wind  
Wind Speed 3 mph ()    
Max Wind Speed 7 mph    
Max Gust Speed 9 mph    
Visibility 10.0 miles    
Events Rain    
T = Trace of Precipitation, MM = Missing Value Source: Averaged Metar Reports

Daily Weather History Graph

Daily Weather History Graph

Search for Another Location

Airport or City:

Astronomy

Oct. 25, 2019 Rise Set
Actual Time 7:21 AM EDT 5:53 PM EDT
Civil Twilight 6:51 AM EDT 6:23 PM EDT
Nautical Twilight 6:17 AM EDT 6:57 PM EDT
Astronomical Twilight 5:44 AM EDT 7:31 PM EDT
Moon 3:49 AM EDT (10/25) 5:03 PM EDT (10/25)
Length of Visible Light 11h 31m
Length of Day
10h 31m
Waning Crescent, 9% of the Moon is Illuminated
Oct 25
Waning Crescent
Oct 27
New
Nov 4
First Quarter
Nov 12
Full
Nov 19
Last Quarter

Hourly Weather History & Observations

Time (EDT) Temp. Windchill Dew Point Humidity Pressure Visibility Wind Dir Wind Speed Gust Speed Precip Events Conditions
12:53 AM 48.0 °F - 41.0 °F 77% 30.28 in 10.0 mi NW 4.6 mph - N/A   Overcast
1:53 AM 46.9 °F - 39.0 °F 74% 30.30 in 10.0 mi WNW 5.8 mph - N/A   Scattered Clouds
2:53 AM 44.1 °F 42.5 °F 39.9 °F 85% 30.31 in 10.0 mi West 3.5 mph - N/A   Partly Cloudy
3:53 AM 44.1 °F 42.5 °F 37.9 °F 79% 30.30 in 10.0 mi SE 3.5 mph - N/A   Clear
4:53 AM 43.0 °F - 39.0 °F 86% 30.31 in 10.0 mi Calm Calm - N/A   Clear
5:53 AM 45.0 °F 43.5 °F 37.0 °F 74% 30.31 in 10.0 mi West 3.5 mph - N/A   Clear
6:53 AM 45.0 °F - 37.9 °F 76% 30.31 in 10.0 mi Calm Calm - N/A   Clear
7:53 AM 44.1 °F 42.5 °F 37.9 °F 79% 30.32 in 10.0 mi West 3.5 mph - N/A   Clear
8:53 AM 46.9 °F - 37.9 °F 71% 30.32 in 10.0 mi WNW 3.5 mph - N/A   Clear
9:53 AM 48.0 °F - 37.9 °F 68% 30.33 in 10.0 mi NW 3.5 mph - N/A   Scattered Clouds
10:53 AM 48.9 °F - 39.0 °F 69% 30.31 in 10.0 mi Calm Calm - N/A   Overcast
11:53 AM 50.0 °F - 39.0 °F 66% 30.31 in 10.0 mi Calm Calm - N/A   Mostly Cloudy
12:53 PM 50.0 °F - 39.0 °F 66% 30.29 in 10.0 mi ESE 4.6 mph - N/A   Partly Cloudy
1:53 PM 50.0 °F - 39.9 °F 68% 30.27 in 10.0 mi SE 5.8 mph - N/A   Partly Cloudy
2:53 PM 50.0 °F - 39.9 °F 68% 30.23 in 10.0 mi ESE 4.6 mph - N/A   Overcast
3:53 PM 50.0 °F - 39.9 °F 68% 30.21 in 10.0 mi SE 4.6 mph - N/A   Mostly Cloudy
4:53 PM 50.0 °F - 39.9 °F 68% 30.21 in 10.0 mi Calm Calm - N/A   Mostly Cloudy
5:53 PM 48.0 °F - 41.0 °F 77% 30.20 in 10.0 mi Calm Calm - N/A   Clear
6:53 PM 46.0 °F - 41.0 °F 83% 30.20 in 10.0 mi Calm Calm - N/A   Overcast
7:53 PM 46.9 °F - 41.0 °F 80% 30.20 in 10.0 mi NW 3.5 mph - N/A   Mostly Cloudy
8:53 PM 46.9 °F - 39.9 °F 77% 30.20 in 10.0 mi NNW 5.8 mph - N/A   Overcast
9:53 PM 46.9 °F - 41.0 °F 80% 30.18 in 10.0 mi NW 3.5 mph - 0.00 in   Overcast
10:22 PM 46.0 °F 44.8 °F 41.0 °F 83% 30.18 in 10.0 mi WNW 3.5 mph - N/A   Mostly Cloudy
10:34 PM 46.0 °F 43.9 °F 41.0 °F 83% 30.18 in 10.0 mi WNW 4.6 mph - N/A   Mostly Cloudy
10:53 PM 46.0 °F 43.9 °F 41.0 °F 83% 30.19 in 10.0 mi WNW 4.6 mph - N/A   Overcast
11:31 PM 46.0 °F - 41.0 °F 83% 30.17 in 10.0 mi Calm Calm - 0.00 in Rain Light Rain
11:53 PM 46.0 °F - 42.1 °F 86% 30.18 in 10.0 mi Calm Calm - 0.00 in   Overcast